Station NIWS1 - Oyster Landing, North Inlet-Winyah Bay Reserve, SC Image indicating link to RSS feed of recent meteorological observations for station NIWS1


Conditions at NIWS1 as of
(12:45 am EDT)
0445 GMT on 06/24/2024:
     

Click on the graph icon in the table below to see a time series plot of the last five days of that observation.

5-day plot - Wind Direction Wind Direction (WDIR):SSW ( 210 deg true )
5-day plot - Wind Speed Wind Speed (WSPD): 12.0 kts
5-day plot - Atmospheric Pressure Atmospheric Pressure (PRES):29.88 in
5-day plot - Air Temperature Air Temperature (ATMP): 81.9 °F
5-day plot - Dew Point Dew Point (DEWP): 79.3 °F
5-day plot - Heat Index Heat Index (HEAT): 91.6 °F
5-day plot -  Wind Speed, Wind Gust and Atmospheric Pressure Combined plot of Wind Speed, Gust, and Air Pressure
Previous observations
TIME
(EDT)
5-day plot - Wind Direction
WDIR
 
5-day plot - Wind Speed
WSPD
kts
5-day plot - Wind Gust
GST
kts
5-day plot - Wave Height
WVHT
ft
5-day plot - Dominant Wave Period
DPD
sec
5-day plot - Average Wave Period
APD
sec
5-day plot - Mean Wave Direction
MWD
 
5-day plot - Atmospheric Pressure
PRES
in
5-day plot - Pressure Tendency
PTDY
in
5-day plot - Air Temperature
ATMP
°F
5-day plot - Water Temperature
WTMP
°F
5-day plot - Dew Point
DEWP
°F
5-day plot - Salinity
SAL
psu
5-day plot - Visibility
VIS
nmi
5-day plot - Tide (above MLLW)
TIDE
ft
2024-06-24 12:30 amSSW 12.0-----29.88- 81.9- 79.0---
2024-06-24 12:15 am SW 13.0-----29.88- 81.9- 79.0---
2024-06-24 12:00 am SW 13.0-----29.88+0.00 81.9- 78.8---
2024-06-23 11:45 pm SW 12.0-----29.88- 82.0- 79.2---
2024-06-23 11:30 pmSSW 14.0-----29.88- 82.0- 79.2---
2024-06-23 11:15 pmSSW 13.0-----29.88- 82.2- 79.3---
2024-06-23 11:00 pmSSW 12.0-----29.88+0.03 82.2- 79.3---
2024-06-23 10:45 pmSSW 13.0-----29.88- 82.2- 79.3---
2024-06-23 10:30 pmSSW 13.0-----29.88- 82.2- 79.3---
2024-06-23 10:15 pmSSW 11.1-----29.88- 82.2- 79.7---
2024-06-23 10:00 pmSSW 9.9-----29.88+0.00 82.4- 79.5---
2024-06-23 09:45 pmSSW 8.9-----29.88- 82.6- 79.7---
2024-06-23 09:30 pmSSW 8.0-----29.88- 82.4- 79.0---
2024-06-23 09:15 pmSSW 8.0-----29.88- 82.2- 78.4---
2024-06-23 09:00 pmSSW 7.0-----29.88+0.00 82.4- 78.6---
2024-06-23 08:45 pm SW 8.0-----29.85- 82.4- 77.9---
2024-06-23 08:30 pm SW 7.0-----29.85- 82.6- 77.7---
2024-06-23 08:15 pm SW 8.0-----29.85- 82.8- 77.9---
2024-06-23 08:00 pmSSW 8.0-----29.85-0.03 83.3- 78.1---
2024-06-23 07:45 pmSSW 8.9-----29.85- 83.7- 77.7---
2024-06-23 07:30 pmSSW 8.0-----29.85- 83.7- 77.7---
2024-06-23 07:15 pmSSW 9.9-----29.85- 83.3- 78.1---
2024-06-23 07:00 pm S 11.1-----29.88-0.03 82.8- 78.6---
2024-06-23 06:45 pmSSE 12.0-----29.88- 82.8- 78.6---
2024-06-23 06:30 pmSSE 12.0-----29.88- 84.2- 79.0---
2024-06-23 06:15 pm S 9.9-----29.88- 84.4- 78.8---
2024-06-23 06:00 pmSSE 11.1-----29.88-0.06 84.2- 79.7---
2024-06-23 05:45 pmSSE 12.0-----29.88- 83.8- 79.3---
2024-06-23 05:30 pm S 9.9-----29.88- 85.5- 79.5---
2024-06-23 05:15 pm S 9.9-----29.88- 85.3- 79.0---
2024-06-23 05:00 pm S 11.1-----29.88-0.06 84.9- 79.0---
2024-06-23 04:45 pm S 9.9-----29.91- 83.8- 79.3---
2024-06-23 04:30 pm S 11.1-----29.91- 84.0- 79.5---
2024-06-23 04:15 pmSSE 11.1-----29.91- 83.8- 79.3---
2024-06-23 04:00 pmSSE 11.1-----29.91-0.06 83.5- 79.0---
2024-06-23 03:45 pmSSE 11.1-----29.91- 83.1- 78.6---
2024-06-23 03:30 pmSSE 11.1-----29.91- 83.1- 78.3---
2024-06-23 03:15 pmSSE 11.1-----29.91- 83.3- 77.7---
2024-06-23 03:00 pmSSE 9.9-----29.94-0.03 83.7- 77.7---
2024-06-23 02:45 pm S 11.1-----29.94- 82.8- 76.8---
2024-06-23 02:30 pm S 12.0-----29.94- 82.2- 77.4---
2024-06-23 02:15 pmSSE 12.0-----29.94- 82.8- 77.9---
2024-06-23 02:00 pmSSE 12.0-----29.94-0.06 83.1- 78.3---
2024-06-23 01:45 pmSSE 12.0-----29.94- 83.5- 77.9---
2024-06-23 01:30 pmSSE 11.1-----29.97- 83.5- 77.5---
2024-06-23 01:15 pmSSE 9.9-----29.97- 83.5- 77.9---
2024-06-23 01:00 pmSSE 11.1-----29.97+0.00 82.9- 77.4---
2024-06-23 12:45 pmSSE 9.9-----29.97- 83.3- 77.4---
2024-06-23 12:30 pmSSE 11.1-----29.97- 82.6- 77.0---
2024-06-23 12:15 pmSSE 9.9-----29.97- 82.9- 77.7---
2024-06-23 12:00 pmSSE 9.9-----29.97-0.03 82.6- 77.4---
2024-06-23 11:45 am SE 11.1-----29.97- 82.6- 77.7---
2024-06-23 11:30 am SE 9.9-----29.97- 82.6- 77.7---
2024-06-23 11:15 amSSE 8.9-----30.00- 82.6- 77.4---
2024-06-23 11:00 amSSE 9.9-----30.00+0.00 82.8- 77.2---
2024-06-23 10:45 amSSE 9.9-----30.00- 82.9- 76.6---
2024-06-23 10:30 amSSE 8.0-----29.97- 82.9- 77.0---
2024-06-23 10:15 amSSE 8.0-----29.97- 82.2- 76.6---
2024-06-23 10:00 amSSE 8.9-----29.97-0.03 81.9- 76.3---
2024-06-23 09:45 amSSE 8.0-----30.00- 82.4- 77.2---
2024-06-23 09:30 amSSE 8.0-----30.00- 81.7- 76.8---
2024-06-23 09:15 amSSE 8.9-----30.00- 81.5- 77.0---
2024-06-23 09:00 amSSE 8.0-----30.00+0.00 82.2- 77.4---
2024-06-23 08:45 am S 6.0-----30.00- 82.2- 77.0---
2024-06-23 08:30 am S 7.0-----30.00- 81.5- 77.0---
2024-06-23 08:15 am S 6.0-----30.00- 80.8- 77.9---
2024-06-23 08:00 am SE 8.0-----30.00+0.00 80.6- 78.1---
2024-06-23 07:45 am SE 7.0-----30.00- 81.1- 78.3---
2024-06-23 07:30 am SE 6.0-----30.00- 80.8- 78.6---
2024-06-23 07:15 amSSE 5.1-----30.00- 80.2- 78.8---
2024-06-23 07:00 amSSE 6.0-----30.00+0.00 79.9- 78.6---
2024-06-23 06:45 amSSE 4.1-----30.00- 79.3- 78.1---
2024-06-23 06:30 am S 4.1-----30.00- 78.8- 77.5---
2024-06-23 06:15 am S 4.1-----30.00- 78.8- 77.5---
2024-06-23 06:00 am S 4.1-----30.00-0.03 78.8- 77.5---
2024-06-23 05:45 am S 2.9-----30.00- 78.8- 77.5---
2024-06-23 05:30 amSSE 2.9-----30.00- 78.8- 77.5---
2024-06-23 05:15 am S 4.1-----30.00- 79.0- 77.5---
2024-06-23 05:00 am S 4.1-----30.00-0.03 79.2- 77.7---
2024-06-23 04:45 am S 5.1-----30.00- 79.2- 77.7---
2024-06-23 04:30 am S 5.1-----30.00- 79.3- 77.5---
2024-06-23 04:15 am S 5.1-----30.00- 79.5- 77.7---
2024-06-23 04:00 am S 6.0-----30.00-0.06 79.5- 77.7---
2024-06-23 03:45 am S 6.0-----30.00- 79.5- 77.7---
2024-06-23 03:30 am S 6.0-----30.00- 79.5- 77.7---
2024-06-23 03:15 am S 6.0-----30.03- 79.5- 77.4---
2024-06-23 03:00 am S 8.0-----30.03-0.03 79.3- 77.2---
2024-06-23 02:45 am S 7.0-----30.03- 79.7- 77.5---
2024-06-23 02:30 am S 7.0-----30.03- 79.7- 77.9---
2024-06-23 02:15 am S 6.0-----30.03- 79.7- 77.9---
2024-06-23 02:00 am S 7.0-----30.03-0.03 79.7- 77.5---